Location: Northcutt
(34.7304°N, 84.4305°W)
Time: 10:46:35
(UTC+00:00)

A-11 Canister half - Pass Details

Date: 07 October 2022
Orbit: 1524 x 1685 km, 47.3° (Epoch: 30 November)

Event Time Altitude Azimuth Distance (km) Brightness Sun altitude
Rises 02:21:02 0° 304° (NW) 4,715 12.5 -38.4°
Reaches altitude 10° 02:24:04 10° 303° (WNW) 3,746 11.7 -38.9°
Enters shadow 02:32:27 69° 268° (W) 1,678 9.1 -40.5°
Maximum altitude 02:33:32 76° 220° (SW) 1,635 - -40.7°
Drops below altitude 10° 02:43:21 10° 137° (SE) 3,862 - -42.5°
Sets 02:46:31 0° 135° (SE) 4,866 - -43.1°
